Theta_e
304 306 306 307 308 309 309 310 310 310 310 311 312 311 311 311 312 308 308 311 315 318 318 319 320 322 322 322 327 324 324 320 321 323 329 326 324 326 326 324 321 323 325 323 323 323 324 328 332 336 333 336 345 346
304 306 306 308 309 309 309 309 308 309 310 311 312 311 311 312 312 311 309 308 310 314 317 315 316 317 319 320 321 321 323 321 323 322 324 323 324 320 325 330 323 326 321 324 323 324 323 327 332 332 332 341 345 345
303 306 306 308 309 309 309 309 308 308 309 311 311 312 312 312 312 312 309 309 311 315 316 316 316 315 316 317 318 323 319 319 320 316 320 325 326 321 322 322 324 321 321 321 323 330 332 334 332 332 333 338 341 341
303 305 306 308 308 308 308 308 308 307 308 310 311 311 312 312 312 312 310 310 312 314 316 316 314 315 315 315 316 317 319 316 317 317 321 324 325 321 324 322 322 322 324 328 328 331 331 331 332 331 333 334 336 336
303 305 306 308 307 307 307 307 306 307 307 309 310 312 312 312 312 312 312 310 310 313 317 317 313 314 314 315 315 316 317 319 321 321 321 322 320 320 320 320 323 321 324 325 325 329 329 327 331 329 333 334 334 332
302 305 305 308 307 307 308 307 306 306 308 309 310 311 312 312 312 312 313 312 311 310 313 317 313 314 315 313 315 316 317 319 320 320 321 321 319 323 326 326 323 322 320 321 323 327 325 328 330 329 333 332 329 329
302 305 306 307 308 308 307 306 305 306 309 310 313 311 311 311 312 311 313 311 311 311 313 315 316 314 315 316 316 317 317 319 320 320 320 320 321 323 324 324 320 318 320 321 321 326 328 328 330 326 326 324 324 325
302 304 306 307 309 309 307 306 306 307 310 310 313 313 312 312 312 312 312 311 311 311 312 314 316 318 317 320 320 318 320 320 320 321 319 320 316 320 326 322 321 318 320 319 322 324 326 328 327 324 324 324 324 324
302 305 307 308 310 307 306 306 306 309 310 311 312 313 313 313 313 312 312 311 312 312 314 315 318 320 317 319 318 319 319 321 319 322 322 322 319 322 320 321 322 321 322 322 322 324 327 328 326 325 325 324 324 325
303 305 307 309 308 307 306 306 308 310 310 311 312 312 315 311 312 311 312 312 313 313 314 316 317 318 317 318 318 318 318 318 321 321 316 319 321 318 318 315 317 321 319 320 324 327 329 328 326 326 325 324 324 324
304 307 308 310 308 307 306 307 309 310 310 310 311 313 309 311 313 313 317 316 316 317 316 318 318 319 316 318 319 318 319 320 320 320 320 320 320 318 317 315 318 319 319 320 322 323 324 325 325 325 325 323 323 323
307 309 310 309 309 305 306 307 308 308 308 308 308 308 309 312 314 317 319 318 319 318 318 320 320 319 319 317 320 320 322 320 323 319 320 321 321 319 319 316 314 315 316 317 321 321 323 322 322 321 320 319 319 320
308 309 310 310 306 308 308 307 308 308 309 310 310 314 315 315 316 319 320 321 321 319 319 318 319 319 320 319 321 321 321 322 320 322 322 322 320 319 317 315 314 314 315 315 316 316 317 317 317 317 317 316 317 318
310 310 309 306 310 311 310 310 310 310 309 314 318 314 317 319 319 319 320 320 318 318 317 317 321 321 320 320 320 322 321 321 322 323 324 321 317 317 315 314 314 315 315 316 316 316 316 316 316 316 316 317 317 318
310 307 305 308 311 310 309 309 309 309 311 317 317 318 317 316 315 315 316 317 315 313 315 319 318 319 320 320 320 321 322 322 320 321 319 317 316 315 315 314 315 315 316 316 316 317 316 317 317 318 318 318 318 318
307 306 309 311 310 308 309 311 311 312 314 317 316 317 316 316 316 315 315 315 313 312 312 312 316 319 319 317 322 321 321 320 319 315 314 315 316 314 314 314 315 316 316 317 316 316 317 317 318 318 317 318 318 318
305 307 310 310 309 309 310 312 312 316 318 316 317 314 315 315 316 315 313 313 309 313 315 314 316 317 315 318 320 316 318 316 313 314 314 314 314 314 314 314 315 315 316 316 316 317 316 316 316 317 317 315 316 318
305 307 307 308 309 309 311 312 315 317 316 315 316 316 313 313 315 315 313 310 312 312 311 314 312 314 313 317 317 314 312 311 311 313 314 314 314 313 313 314 313 313 314 314 313 313 314 316 316 316 314 313 314 316
305 307 308 309 309 308 313 315 315 318 315 314 313 311 312 314 313 312 310 309 308 307 309 310 311 313 313 311 312 311 311 312 313 311 312 313 311 311 311 311 311 311 311 310 310 311 312 313 314 313 313 313 315 316
308 310 313 312 311 310 315 316 312 316 317 314 312 313 314 314 312 312 311 310 311 312 312 312 312 311 311 309 310 311 311 310 311 312 312 313 311 311 310 310 310 311 311 311 310 310 309 308 307 309 309 310 311 311
311 312 312 311 310 310 313 317 317 316 315 315 312 313 314 313 314 314 313 310 312 314 314 311 310 310 308 309 309 308 309 310 311 312 311 311 310 310 309 310 311 310 311 311 312 309 309 309 308 308 308 310 309 309
311 311 311 311 313 314 314 315 317 315 316 315 315 313 316 316 316 314 311 313 312 314 312 310 310 311 310 310 309 309 309 308 308 308 309 309 310 309 309 308 310 310 310 310 309 309 309 308 308 309 309 308 309 309
311 312 312 312 316 311 314 313 318 315 317 315 314 317 316 315 313 309 313 312 312 310 310 308 309 308 309 309 309 308 306 307 308 308 309 309 309 308 309 309 310 310 310 310 310 310 310 309 308 309 309 309 309 309
313 313 316 316 315 313 316 319 317 318 317 318 315 317 316 315 311 314 315 313 311 310 310 310 309 310 309 308 309 309 308 307 308 308 308 309 309 309 309 309 309 309 309 310 310 310 310 311 309 309 310 309 310 310
314 311 313 308 314 318 320 320 320 319 318 316 319 319 317 313 315 315 315 313 311 311 311 310 311 311 310 310 309 309 308 309 310 310 309 309 309 310 310 309 308 307 307 309 309 310 311 311 310 310 310 310 310 309
313 313 314 318 320 320 319 317 316 318 318 317 317 317 317 317 317 317 315 313 310 311 311 312 311 311 310 310 311 311 310 309 309 310 309 309 309 310 310 310 310 309 307 309 309 310 310 310 310 311 310 310 309 310
311 315 316 314 317 316 317 316 316 318 319 319 318 319 318 318 318 317 314 310 310 309 310 310 310 311 311 311 310 310 309 309 310 310 309 308 308 308 309 310 310 310 307 308 308 308 308 308 308 308 309 310 309 309
315 316 319 320 320 318 318 319 320 320 318 316 317 320 319 319 319 316 313 310 309 308 308 309 309 310 311 310 310 310 310 309 309 309 307 306 304 305 307 308 308 306 307 307 308 307 306 307 307 307 308 309 309 309
317 317 318 320 320 320 320 320 321 319 317 317 320 318 318 316 313 311 308 308 307 307 307 308 308 308 309 309 309 308 308 309 310 312 311 309 307 306 305 306 306 306 307 306 305 304 305 306 307 307 307 307 307 307
318 317 321 322 322 321 321 319 320 315 313 315 314 312 311 311 309 306 307 307 307 307 308 308 309 308 309 309 309 306 306 308 310 311 309 308 307 305 305 305 306 307 307 306 305 305 304 305 304 305 306 306 306 306
319 319 322 322 322 321 318 313 313 310 311 313 312 313 313 312 309 306 307 308 308 307 308 308 308 308 308 308 309 310 310 307 308 308 307 305 305 305 305 305 304 306 306 306 306 306 305 306 306 306 306 306 306 305
320 321 319 321 320 318 314 312 312 313 314 314 314 312 312 312 312 310 307 307 307 308 308 309 309 310 308 308 308 309 309 309 308 307 307 306 304 303 304 304 305 305 305 305 305 305 305 305 305 305 305 304 305 306
319 318 318 319 319 319 317 314 315 315 314 315 315 313 313 313 313 313 307 308 309 309 309 309 309 309 308 308 308 308 308 308 307 307 307 306 305 304 304 304 305 305 305 304 304 305 305 305 304 305 305 306 306 306
Wind_Speed
17 16 16 16 17 18 18 22 26 29 27 26 24 20 17 16 19 20 12 22 10 2 3 3 3 4 3 3 3 1 2 2 2 4 5 5 5 10 10 9 5 7 7 5 3 8 12 6 7 6 1 3 16 19
13 16 15 14 14 15 18 22 27 30 32 29 26 20 13 13 17 24 6 17 19 6 2 4 8 14 10 6 1 1 2 1 0 2 1 0 4 3 8 12 5 10 5 4 6 7 3 1 3 5 5 3 12 17
16 15 17 12 13 15 19 22 25 28 30 31 26 20 9 8 14 25 12 11 13 2 5 8 12 26 17 17 15 4 1 2 1 1 2 2 4 2 5 5 5 3 3 6 6 5 9 8 5 1 3 5 7 12
14 15 17 13 14 17 19 22 24 26 26 25 27 23 13 7 10 21 16 16 11 1 3 5 5 5 8 12 18 19 13 1 2 1 2 3 3 1 2 3 3 0 6 6 3 4 5 7 10 8 4 7 11 13
15 15 18 14 15 17 20 23 24 25 24 24 21 25 15 6 5 12 20 17 19 3 2 2 8 9 10 10 12 14 16 7 3 2 2 3 2 2 2 3 5 3 4 5 8 8 3 3 10 14 9 12 15 15
17 14 18 16 15 18 21 23 24 24 24 26 17 15 16 8 5 6 2 13 20 20 3 2 4 4 6 9 9 10 10 5 3 3 3 3 3 3 3 4 7 11 7 7 6 5 9 11 13 14 12 13 14 15
20 14 18 17 16 19 22 23 23 23 23 24 15 7 7 6 1 0 0 1 2 18 2 2 3 3 5 4 4 4 8 3 2 2 3 2 3 3 3 9 5 5 13 12 4 10 7 9 9 13 12 13 16 18
19 15 17 18 15 18 22 23 20 20 23 20 11 6 5 4 3 2 4 5 5 3 1 2 4 2 8 3 4 5 5 4 4 3 2 2 1 2 4 8 14 11 6 8 11 7 9 11 15 15 16 14 14 12
18 15 16 17 14 18 21 19 17 19 24 13 10 4 1 2 2 3 3 6 4 3 2 3 2 1 1 2 2 3 3 4 1 4 4 4 3 5 7 12 16 13 6 6 10 10 18 19 18 17 15 13 13 11
21 17 15 14 14 17 18 15 15 20 16 11 3 1 1 3 1 2 1 1 1 2 2 2 2 2 1 0 1 2 1 1 1 1 3 2 3 10 12 12 11 10 9 14 15 12 14 19 17 18 15 12 10 10
18 16 14 13 14 16 15 12 15 19 6 6 4 2 4 2 2 2 2 2 2 2 2 2 2 2 2 2 2 2 1 2 2 3 3 3 3 5 6 6 5 8 9 7 7 8 11 16 16 14 11 10 12 13
15 12 11 12 15 15 13 10 12 12 9 9 10 7 3 1 2 2 2 0 1 1 2 4 2 2 1 3 3 3 2 3 2 6 3 3 2 5 9 6 1 6 6 4 19 11 12 13 16 14 13 13 14 14
12 10 11 13 14 12 10 9 10 12 13 1 2 2 1 1 3 3 4 2 2 1 3 3 3 2 1 1 1 1 1 0 1 3 2 2 6 8 9 6 2 6 8 8 11 15 18 16 16 17 15 13 12 12
10 11 12 11 9 12 10 10 11 11 3 1 2 4 2 1 3 2 4 3 3 3 6 5 2 2 1 2 1 3 2 1 3 3 2 3 8 12 10 6 1 6 7 9 11 14 15 15 14 11 12 12 12 12
13 13 12 8 10 14 14 12 11 5 2 1 1 2 3 2 2 4 4 4 2 4 4 3 2 1 2 2 2 2 1 3 3 2 2 6 10 8 7 3 5 8 10 10 11 12 15 16 14 12 10 10 10 11
13 13 0 5 14 15 14 8 2 3 2 2 2 1 0 2 3 4 4 4 3 5 2 1 2 1 2 2 2 4 2 3 2 3 4 6 5 3 2 1 6 10 13 14 16 16 14 15 13 12 9 7 6 8
11 3 5 12 16 16 7 1 2 2 2 2 2 1 1 1 2 2 2 4 4 3 2 1 2 2 3 1 2 3 2 2 3 4 4 4 4 5 5 8 10 13 14 15 14 18 14 15 13 12 10 7 7 8
4 7 12 13 16 12 1 1 1 2 2 2 2 2 2 2 2 3 2 3 3 2 1 2 1 2 2 2 2 1 1 2 2 4 3 3 5 7 9 10 13 14 14 12 12 12 12 11 9 8 10 8 9 10
16 16 10 8 8 4 2 1 1 2 2 1 2 2 2 2 2 2 2 1 2 1 2 1 2 1 1 1 2 2 3 2 3 3 2 3 5 8 10 12 11 11 12 11 11 8 8 7 7 9 9 8 8 10
10 5 5 5 3 1 2 1 1 2 2 0 2 2 2 2 1 2 2 2 1 0 0 1 1 2 1 1 2 4 4 3 3 2 1 2 6 9 9 10 3 7 11 11 10 10 10 9 9 7 5 7 8 8
4 2 6 2 1 2 2 2 2 2 1 2 1 2 2 1 2 2 2 2 1 1 0 1 2 2 2 1 2 4 3 3 2 2 0 1 5 7 7 8 4 4 6 6 6 6 7 7 6 5 4 4 6 8
2 7 2 1 1 1 2 3 2 2 2 1 1 1 2 2 2 1 2 2 1 1 1 2 2 2 2 2 3 5 4 5 4 3 7 12 6 5 5 5 5 6 7 7 8 8 8 9 10 10 10 9 8 9
6 3 2 1 2 0 3 1 2 0 2 1 1 2 2 2 1 1 2 1 2 1 2 2 4 4 5 5 4 5 6 6 6 8 10 13 15 16 8 4 5 6 7 6 6 7 7 8 9 11 10 9 8 9
3 2 2 1 2 3 2 1 1 1 1 2 2 3 1 1 2 2 2 1 2 3 3 6 7 4 4 3 2 4 5 6 8 8 8 11 10 6 3 2 2 2 4 7 5 3 7 8 9 8 8 7 8 9
2 1 1 4 2 2 2 1 1 1 2 2 2 2 1 2 2 2 1 3 4 4 5 6 5 3 4 4 3 4 3 5 7 5 7 7 5 2 3 1 1 2 4 5 5 7 10 9 10 10 9 9 10 9
3 3 3 2 1 3 2 2 2 2 2 2 3 1 2 2 2 3 2 6 5 7 7 7 6 5 4 4 4 5 7 8 6 5 6 8 8 6 3 2 1 3 5 4 7 8 9 8 9 11 11 9 11 11
3 3 3 2 2 1 2 2 1 2 3 3 2 1 2 3 3 1 3 4 4 10 14 13 13 9 6 8 6 5 6 9 6 2 3 4 6 9 9 5 2 1 5 7 7 6 5 6 6 6 5 7 8 10
3 2 3 2 3 3 3 2 3 3 3 2 2 3 2 2 1 1 2 9 10 13 14 11 8 6 5 5 5 4 5 7 5 5 4 4 2 3 6 5 5 4 2 7 6 4 5 6 6 4 4 4 6 8
3 2 3 4 4 4 4 4 3 3 2 3 2 1 1 1 2 0 3 11 11 13 12 9 8 7 5 5 5 6 6 8 9 5 4 2 1 3 4 4 4 6 8 11 9 7 8 8 6 5 6 7 6 4
3 4 2 2 3 3 3 6 2 2 3 2 1 1 2 1 1 2 8 13 12 13 13 10 8 9 6 6 4 4 6 8 8 4 1 0 3 7 7 7 6 8 9 10 12 11 11 8 7 6 6 6 5 5
1 3 3 4 3 2 2 2 2 2 3 3 3 2 2 2 2 4 10 10 11 10 10 8 8 8 7 8 8 5 4 8 9 7 5 5 7 8 7 7 6 7 9 10 8 7 8 9 8 7 6 6 5 4
4 5 2 3 3 1 2 3 2 2 2 3 3 2 3 2 4 4 12 14 11 10 11 9 7 8 9 8 7 7 7 2 10 11 11 9 6 9 9 8 8 7 9 7 7 8 8 8 7 5 3 4 4 3
2 2 3 3 2 3 1 2 2 2 2 2 2 3 4 3 4 2 11 23 20 18 14 13 9 5 5 5 7 7 6 8 8 7 11 12 10 10 11 10 10 9 8 7 5 4 4 6 7 6 6 5 6 8
Wind_Direction
337 340 343 347 347 351 1 2 0 359 351 344 332 310 283 258 234 203 234 215 219 242 271 213 237 224 199 210 217 140 250 165 251 213 190 212 234 220 233 214 181 194 173 184 153 228 227 152 127 201 291 297 192 178
333 340 336 345 354 357 357 358 358 359 0 355 348 334 282 252 228 211 220 224 235 249 323 316 272 257 243 265 291 270 328 83 304 288 254 137 247 218 225 233 218 239 222 243 218 229 139 83 334 338 274 218 185 173
332 333 331 333 340 343 346 348 352 354 358 2 359 353 327 258 226 210 198 209 207 261 248 247 247 263 252 233 219 241 213 265 192 27 308 281 252 189 204 221 205 231 153 225 159 180 168 154 129 34 247 209 204 166
328 325 327 320 329 335 337 340 344 349 352 358 3 359 344 287 233 211 197 209 212 270 227 260 229 247 240 237 223 221 232 116 93 152 256 258 275 193 292 306 259 118 164 179 185 171 170 120 91 87 97 147 147 150
322 320 325 316 321 328 333 335 338 341 347 351 347 2 359 342 230 212 213 217 219 243 280 267 308 256 235 224 216 220 221 214 213 232 217 232 262 240 243 279 250 207 207 217 231 176 146 151 127 118 175 152 138 132
322 311 323 314 313 324 329 330 332 337 343 347 343 354 12 29 106 161 195 226 228 224 303 280 306 257 227 212 219 206 207 209 201 180 214 236 210 228 242 254 261 247 222 232 259 189 210 146 152 145 170 154 149 134
321 311 319 313 309 320 327 329 329 333 341 344 345 330 358 25 354 186 278 115 230 199 249 257 261 222 194 172 183 199 189 196 181 207 218 238 217 211 243 248 260 300 276 242 205 106 103 166 163 153 160 158 135 117
321 315 316 313 308 319 325 326 326 331 338 337 337 327 328 316 308 304 306 236 171 117 185 274 271 265 179 184 202 181 191 190 192 194 137 193 30 286 245 252 250 280 277 209 199 193 194 147 132 146 159 148 129 133
319 313 313 312 313 321 326 325 328 334 336 327 320 312 89 30 351 344 60 142 203 225 217 222 270 296 159 222 196 172 175 195 137 197 177 182 150 214 227 238 247 245 234 171 160 146 151 146 147 152 162 155 147 150
317 316 311 308 314 324 326 326 331 339 340 336 345 215 91 345 281 132 251 249 223 202 226 252 245 245 269 220 44 140 111 214 153 140 130 167 258 244 264 264 270 212 153 147 124 142 157 148 154 164 172 165 162 160
314 312 303 303 315 322 325 327 334 346 352 4 7 17 315 318 270 236 251 212 185 248 211 257 265 280 158 232 182 206 193 184 164 199 162 206 236 193 346 312 263 183 151 191 127 130 153 145 154 161 159 170 172 171
311 303 297 307 317 321 321 323 330 345 345 308 285 303 300 256 225 273 283 255 10 355 273 300 312 274 221 205 215 192 232 185 181 143 222 191 82 351 337 339 133 167 140 114 123 152 162 158 155 151 157 170 178 171
314 307 308 314 320 325 327 322 323 324 328 299 228 253 306 173 10 358 355 321 347 311 329 314 320 328 323 280 220 257 332 34 115 197 151 15 338 338 329 344 70 142 125 127 122 128 145 137 145 156 160 172 167 162
320 310 310 315 322 333 328 324 320 324 308 292 326 340 355 333 14 314 320 319 339 316 319 310 264 293 326 264 297 255 118 177 177 155 29 357 337 327 336 344 219 149 142 130 138 137 135 141 145 148 161 166 168 165
307 310 308 306 328 332 325 316 307 302 211 277 260 360 15 337 270 307 312 301 330 309 316 300 260 305 334 300 353 291 196 62 47 56 12 320 320 318 315 321 128 135 130 121 124 124 122 121 124 124 132 140 149 151
318 319 327 330 332 331 326 314 272 183 208 227 217 252 263 301 340 343 336 320 355 323 285 261 302 315 43 325 353 24 13 49 53 338 304 303 318 333 327 99 123 127 128 123 119 117 123 123 128 128 127 133 147 163
320 251 308 324 327 333 318 240 187 219 282 198 216 231 258 267 278 288 300 327 327 297 3 331 347 25 294 316 68 16 35 11 332 325 323 6 57 55 78 89 90 94 101 107 117 114 118 118 129 135 134 132 139 143
267 301 316 322 329 337 309 217 238 247 240 203 244 201 215 240 242 264 273 328 323 21 333 43 347 29 36 7 46 38 332 316 331 341 348 71 91 82 78 83 83 86 85 88 93 100 110 127 140 141 132 142 143 145
302 308 314 317 314 317 320 204 232 263 256 244 250 220 241 258 235 260 254 352 30 57 140 91 69 46 21 349 336 326 313 315 330 352 341 87 95 89 80 71 74 82 90 92 100 97 112 125 133 135 140 159 149 154
303 317 338 316 254 259 277 229 242 261 261 15 239 227 243 257 286 225 225 225 270 229 106 62 112 160 189 261 270 297 289 280 278 311 349 150 136 128 110 105 128 126 108 97 88 99 100 100 106 112 124 138 139 139
323 325 331 322 256 231 271 286 237 249 294 259 318 252 268 242 242 233 209 161 195 85 156 177 160 150 203 222 293 280 285 237 229 263 261 124 123 117 114 115 123 105 114 119 122 113 121 120 119 105 142 137 133 128
310 325 296 282 268 209 265 233 286 324 256 303 252 262 267 261 264 232 139 207 159 111 149 163 157 158 156 84 71 52 55 93 88 91 131 120 111 89 70 84 142 138 134 134 144 142 149 154 164 170 149 128 119 118
315 315 272 263 253 159 264 191 259 239 267 296 274 259 226 233 189 170 257 359 83 98 136 139 139 125 115 109 98 64 56 55 50 53 90 97 115 131 145 89 87 121 128 122 127 136 132 132 126 138 143 149 153 134
303 276 274 268 220 267 301 233 246 277 265 261 265 272 238 275 158 241 264 147 106 138 163 152 150 130 118 130 100 77 80 103 99 98 113 125 137 138 127 106 54 108 130 142 148 142 157 163 159 170 166 162 155 141
296 277 149 284 234 252 250 260 242 255 257 249 264 259 170 187 235 243 242 154 163 168 161 162 169 170 148 134 137 131 150 130 123 127 142 154 151 197 249 292 189 172 174 183 184 169 165 164 175 183 187 186 174 183
250 213 176 230 210 226 220 239 223 247 259 255 241 258 192 231 247 253 217 166 168 177 179 180 171 163 170 174 160 170 179 180 167 172 186 208 223 245 278 308 250 135 178 157 154 157 164 176 187 192 196 204 196 180
256 250 214 225 270 253 256 248 248 240 252 239 244 227 215 237 235 220 143 171 162 185 184 179 178 175 162 172 187 171 166 184 184 184 169 195 250 238 231 236 234 111 177 176 158 159 162 168 171 180 186 191 193 197
256 250 231 166 222 220 266 245 218 225 235 207 230 229 254 264 350 66 172 169 165 169 178 186 191 184 163 166 170 172 184 195 206 230 253 272 337 242 223 218 235 272 165 168 163 155 146 145 142 150 154 156 177 184
240 214 207 238 221 218 226 230 236 216 201 193 242 243 262 248 337 31 149 161 158 160 166 178 200 209 221 224 227 217 212 187 180 195 243 303 94 85 129 157 159 155 150 147 147 145 142 131 128 135 147 147 141 145
246 187 234 241 230 239 239 192 225 196 189 241 228 157 187 185 228 171 148 155 165 182 189 187 181 192 214 210 211 194 194 192 204 231 276 292 109 136 132 140 148 150 149 148 145 138 150 164 161 152 153 158 160 155
190 193 240 238 261 247 242 218 233 228 206 214 202 239 153 129 134 174 179 178 178 179 179 190 204 213 209 205 206 199 197 210 206 198 178 96 130 145 140 133 119 133 153 154 149 148 153 147 150 155 160 161 164 175
196 212 223 248 261 226 224 214 221 226 199 206 193 170 165 178 177 178 192 178 177 191 206 210 230 238 227 224 219 224 231 219 213 203 196 190 178 170 168 162 152 139 154 149 136 146 156 158 163 170 179 202 216 230
228 215 236 264 262 266 202 211 227 248 210 213 215 217 198 202 228 197 187 196 194 196 201 212 226 253 277 273 244 243 247 241 240 234 225 203 203 194 186 180 181 179 181 194 197 194 188 195 201 215 224 238 241 243